Change the Weather History Date:

Saturday, February 4, 2012

  Actual Average Record
Temperature  
Mean Temperature 33 °F 22 °F  
Max Temperature 36 °F 31 °F 54 °F (2005)
Min Temperature 30 °F 12 °F -13 °F (2007)
Degree Days  
Heating Degree Days 32 43  
Month to date heating degree days 118 175  
Since 1 July heating degree days 3623 4330  
Cooling Degree Days 0 0  
Month to date cooling degree days 0 0  
Year to date cooling degree days 0 0  
Moisture  
Dew Point 30 °F    
Average Humidity 89    
Maximum Humidity 96    
Minimum Humidity 82    
Precipitation  
Precipitation 0.00 in 0.03 in 0.18 in (1997)
Month to date precipitation T 0.12  
Year to date precipitation T  
Sea Level Pressure  
Sea Level Pressure 30.28 in    
Wind  
Wind Speed 12 mph (NNE)    
Max Wind Speed 20 mph    
Max Gust Speed 26 mph    
Visibility 4 miles    
Events Fog , Snow    
T = Trace of Precipitation, MM = Missing Value Source: NWS Daily Summary

Daily Weather History Graph

Daily Weather History Graph

Search for Another Location

Airport or City:

Trip Planner

Search our weather history database for the weather conditions in past years. The results will help you decide how hot, cold, wet, or windy it might be!

Date:

Astronomy

Feb. 04, 2012 Rise Set
Actual Time 7:24 AM CST 5:32 PM CST
Civil Twilight 6:55 AM CST 6:02 PM CST
Nautical Twilight 6:21 AM CST 6:35 PM CST
Astronomical Twilight 5:49 AM CST 7:08 PM CST
Moon 2:28 PM CST (2/4) 4:52 AM CST (2/4)
Length of Visible Light 11h 06m
Length of Day
10h 08m
Waxing Gibbous, 89% of the Moon is Illuminated
Feb 4
Waxing Gibbous
Feb 7
Full
Feb 14
Last Quarter
Feb 21
New
Feb 29
First Quarter

Hourly Weather History & Observations

Time (CST) Temp. Windchill Dew Point Humidity Pressure Visibility Wind Dir Wind Speed Gust Speed Precip Events Conditions
12:03 AM 33.8 °F 25.3 °F 30.2 °F 87% 30.30 in 2.5 mi ENE 11.5 mph - N/A   Overcast
12:11 AM 33.8 °F 27.0 °F 30.2 °F 87% 30.31 in 2.5 mi ENE 8.1 mph 17.3 mph N/A   Overcast
12:31 AM 32.0 °F 23.0 °F 30.2 °F 93% 30.30 in 3.0 mi ENE 11.5 mph - N/A   Overcast
12:53 AM 32.0 °F 22.5 °F 30.9 °F 96% 30.32 in 3.0 mi ENE 12.7 mph - N/A   Overcast
1:53 AM 32.0 °F 22.5 °F 30.9 °F 96% 30.31 in 4.0 mi ENE 12.7 mph - N/A   Overcast
2:50 AM 32.0 °F 22.1 °F 30.2 °F 93% 30.25 in 2.5 mi NE 13.8 mph 20.7 mph N/A   Overcast
2:53 AM 32.0 °F 23.0 °F 30.9 °F 96% 30.27 in 2.5 mi NE 11.5 mph 20.7 mph N/A   Overcast
3:06 AM 32.0 °F 22.1 °F 30.2 °F 93% 30.24 in 3.0 mi ENE 13.8 mph 19.6 mph N/A   Overcast
3:53 AM 32.0 °F 22.1 °F 30.0 °F 92% 30.24 in 4.0 mi NE 13.8 mph 24.2 mph N/A   Overcast
4:53 AM 32.0 °F 22.5 °F 30.0 °F 92% 30.23 in 3.0 mi ENE 12.7 mph 23.0 mph N/A   Overcast
5:53 AM 32.0 °F 23.6 °F 30.0 °F 92% 30.24 in 3.0 mi NE 10.4 mph 18.4 mph N/A   Overcast
6:53 AM 32.0 °F 23.6 °F 30.0 °F 92% 30.24 in 3.0 mi NE 10.4 mph - N/A   Overcast
7:22 AM 32.0 °F 24.2 °F 30.2 °F 93% 30.23 in 2.5 mi NE 9.2 mph - 0.00 in Snow Light Snow
7:36 AM 32.0 °F 24.2 °F 30.2 °F 93% 30.23 in 3.0 mi NE 9.2 mph - 0.00 in   Overcast
7:53 AM 32.0 °F 23.6 °F 30.9 °F 96% 30.27 in 3.0 mi NNE 10.4 mph - 0.00 in   Overcast
8:15 AM 32.0 °F 21.6 °F 30.2 °F 93% 30.24 in 2.0 mi NNE 15.0 mph 19.6 mph 0.00 in   Overcast
8:34 AM 32.0 °F 22.1 °F 30.2 °F 93% 30.26 in 1.2 mi NNE 13.8 mph - 0.00 in Snow Light Snow
8:53 AM 32.0 °F 22.1 °F 30.9 °F 96% 30.29 in 0.5 mi NNE 13.8 mph - 0.00 in Fog , Snow Snow
9:26 AM 32.0 °F 22.5 °F 30.2 °F 93% 30.27 in 1.2 mi NNE 12.7 mph - 0.00 in Snow Light Snow
9:53 AM 33.1 °F 23.0 °F 30.9 °F 92% 30.30 in 1.0 mi NNE 15.0 mph - 0.00 in Snow Light Snow
10:26 AM 33.8 °F 23.2 °F 30.2 °F 87% 30.29 in 2.0 mi NNE 17.3 mph 23.0 mph 0.00 in Snow Light Snow
10:38 AM 33.8 °F 23.9 °F 30.2 °F 87% 30.29 in 3.0 mi NNE 15.0 mph 23.0 mph 0.00 in   Overcast
10:53 AM 33.1 °F 22.2 °F 30.0 °F 89% 30.31 in 4.0 mi NNE 17.3 mph 24.2 mph 0.00 in Snow Light Snow
11:05 AM 33.8 °F 24.3 °F 30.2 °F 87% 30.29 in 3.0 mi NNE 13.8 mph 21.9 mph 0.00 in Snow Light Snow
11:53 AM 33.1 °F 23.9 °F 30.0 °F 89% 30.31 in 5.0 mi NNE 12.7 mph - 0.00 in   Overcast
12:53 PM 33.1 °F 24.4 °F 30.0 °F 89% 30.29 in 5.0 mi NNE 11.5 mph - N/A   Overcast
1:32 PM 33.8 °F 24.8 °F 28.4 °F 81% 30.26 in 3.0 mi NNE 12.7 mph - N/A   Overcast
1:53 PM 33.1 °F 23.0 °F 30.0 °F 89% 30.27 in 2.5 mi North 15.0 mph - N/A   Overcast
2:04 PM 33.8 °F 23.9 °F 30.2 °F 87% 30.25 in 5.0 mi North 15.0 mph - N/A   Overcast
2:53 PM 33.1 °F 24.4 °F 28.9 °F 85% 30.28 in 4.0 mi North 11.5 mph - N/A   Overcast
3:53 PM 34.0 °F 28.0 °F 28.9 °F 82% 30.29 in 6.0 mi North 6.9 mph - N/A   Haze
4:53 PM 34.0 °F 28.8 °F 30.0 °F 85% 30.29 in 6.0 mi North 5.8 mph - N/A   Overcast
5:53 PM 35.1 °F 27.9 °F 30.9 °F 85% 30.29 in 10.0 mi North 9.2 mph - N/A   Overcast
6:53 PM 35.1 °F 26.9 °F 30.9 °F 85% 30.30 in 8.0 mi North 11.5 mph - N/A   Overcast
7:53 PM 34.0 °F 26.6 °F 30.9 °F 89% 30.32 in 8.0 mi North 9.2 mph - N/A   Overcast
8:53 PM 33.1 °F 23.9 °F 30.0 °F 89% 30.32 in 9.0 mi NNW 12.7 mph - N/A   Mostly Cloudy
9:53 PM 32.0 °F 22.5 °F 28.9 °F 88% 30.32 in 7.0 mi NNW 12.7 mph - N/A   Scattered Clouds
10:53 PM 30.0 °F 20.5 °F 27.0 °F 88% 30.33 in 6.0 mi NNW 11.5 mph - N/A   Clear
11:53 PM 30.0 °F 18.7 °F 27.0 °F 88% 30.34 in 8.0 mi NNW 16.1 mph - N/A   Clear